VA3JLF-1 Weather Reports


time (UTC)temp
F
wind
direction
speed
knots
gust
knots
rain 1hr
in
rain 24hr
in
rain mn
in
humidity
%
barometer
mb
20260507035908 44 315 4.3 8.7 0.00 0.37 0.37 68 1008.4
20260507034907 44 321 3.5 7.8 0.00 0.37 0.37 71 1008.2
20260507033908 44 317 3.5 10.4 0.00 0.38 0.37 76 1008.1
20260507032907 44 321 2.6 6.1 0.00 0.38 0.37 78 1007.9
20260507031907 44 313 1.7 5.2 0.00 0.39 0.37 87 1007.7
20260507030908 44 316 1.7 5.2 0.00 0.39 0.37 86 1007.9
20260507025907 44 314 2.6 5.2 0.00 0.40 0.37 90 1008.2
20260507024908 44 324 1.7 4.3 0.00 0.41 0.37 93 1008.3
20260507023908 44 295 2.6 6.1 0.00 0.42 0.37 94 1008.2
20260507022907 44 300 2.6 6.1 0.00 0.43 0.37 94 1008.5
20260507021907 44 307 2.6 7.0 0.00 0.44 0.37 93 1008.1
20260507020908 45 314 1.7 7.0 0.00 0.45 0.37 93 1008.2
20260507015907 45 306 1.7 7.0 0.00 0.46 0.37 92 1008.1
20260507014907 45 308 2.6 8.7 0.00 0.47 0.37 93 1008.1
20260507013907 45 300 1.7 7.8 0.00 0.47 0.37 93 1008.3
20260507012910 45 302 1.7 7.8 0.00 0.00 0.37 92 1008.2
20260507012907 45 302 1.7 7.8 0.00 0.48 0.37 92 1008.2
20260507011907 45 328 1.7 4.3 0.00 0.48 0.37 93 1008.2
20260507010907 45 317 1.7 5.2 0.00 0.48 0.37 93 1007.8
20260507005907 45 328 0.9 5.2 0.00 0.48 0.37 93 1007.8
20260507004908 45 316 1.7 6.1 0.00 0.48 0.37 93 1007.7
20260507003908 45 304 1.7 8.7 0.00 0.48 0.37 93 1007.7
20260507002907 45 294 1.7 7.0 0.00 0.48 0.37 93 1007.5
20260507001907 44 298 1.7 7.0 0.00 0.49 0.37 91 1007.6
20260507000909 44 286 2.6 7.0 0.00 0.50 0.37 90 1007.7
20260506235908 44 304 1.7 7.0 0.00 0.50 0.37 91 1007.5
20260506234907 44 313 1.7 5.2 0.00 0.51 0.37 91 1007.6
20260506233907 44 293 2.6 7.0 0.00 0.52 0.37 92 1007.4
20260506232907 44 298 2.6 7.0 0.00 0.53 0.37 91 1007.2
20260506231907 45 296 1.7 5.2 0.00 0.53 0.37 92 1007.2
20260506230908 45 303 1.7 7.0 0.00 0.53 0.37 91 1007.2
20260506225907 45 295 1.7 7.0 0.00 0.54 0.37 91 1007.0
20260506224908 45 306 1.7 6.1 0.00 0.54 0.37 92 1007.3
20260506223907 45 289 1.7 6.1 0.00 0.55 0.37 91 1006.9
20260506222907 45 288 1.7 8.7 0.00 0.56 0.37 91 1006.9
20260506221908 45 295 1.7 6.1 0.00 0.56 0.37 90 1006.7
20260506220914 46 315 0.9 4.3 0.00 0.57 0.37 90 1006.6
20260506220907 46 315 0.9 4.3 0.00 0.57 0.37 90 1006.6
20260506215907 46 311 0.9 4.3 0.00 0.57 0.37 90 1006.6
20260506214907 47 322 0.9 3.5 0.00 0.57 0.37 91 1006.7
20260506213908 46 320 0.9 4.3 0.00 0.57 0.37 90 1006.8
20260506212907 47 311 1.7 5.2 0.00 0.57 0.37 89 1006.8
20260506211907 48 316 0.9 4.3 0.00 0.57 0.37 88 1006.7
20260506210908 47 268 1.7 7.8 0.00 0.57 0.37 89 1006.6
20260506205907 47 282 1.7 7.8 0.00 0.57 0.37 89 1006.7
20260506204907 47 281 1.7 7.0 0.00 0.57 0.37 88 1006.2
20260506203907 48 268 1.7 7.0 0.00 0.57 0.37 87 1006.4
20260506202907 48 270 1.7 7.0 0.00 0.57 0.37 88 1006.2
20260506201907 48 274 1.7 7.0 0.00 0.57 0.37 88 1006.1
20260506200907 48 254 1.7 6.1 0.00 0.57 0.37 87 1006.1
20260506195908 50 298 0.9 3.5 0.00 0.57 0.37 85 1006.4
20260506194907 49 263 0.9 7.0 0.00 0.57 0.37 87 1006.4
20260506193907 49 278 1.7 7.8 0.00 0.57 0.37 84 1006.4
20260506192907 49 277 1.7 7.0 0.00 0.57 0.37 84 1006.6
20260506191907 49 298 1.7 4.3 0.00 0.57 0.37 84 1006.2
20260506190907 49 305 1.7 3.5 0.00 0.57 0.37 85 1006.7
20260506185907 49 343 1.7 4.3 0.00 0.57 0.37 84 1005.9
20260506184907 49 1 1.7 4.3 0.00 0.57 0.37 81 1006.4
20260506183907 49 326 0.9 3.5 0.00 0.57 0.37 80 1006.4
20260506182907 49 344 1.7 3.5 0.00 0.57 0.37 81 1006.5
20260506181907 49 348 0.9 3.5 0.00 0.57 0.37 84 1006.7
20260506180907 48 8 1.7 4.3 0.00 0.57 0.37 85 1006.6
20260506175908 47 352 1.7 4.3 0.00 0.57 0.37 85 1006.5
20260506174907 47 1 1.7 5.2 0.00 0.57 0.37 87 1006.6
20260506173907 47 8 2.6 5.2 0.00 0.57 0.37 88 1006.2
20260506172907 46 6 2.6 5.2 0.00 0.57 0.37 88 1006.4
20260506171907 46 2 1.7 5.2 0.00 0.57 0.37 89 1006.4
20260506170907 47 355 1.7 5.2 0.00 0.57 0.37 88 1006.6
20260506165907 46 2 1.7 5.2 0.00 0.57 0.37 88 1006.2
20260506164907 47 356 1.7 5.2 0.00 0.57 0.37 89 1006.4
20260506163907 46 1 1.7 6.1 0.00 0.57 0.37 89 1006.1
20260506162907 46 10 1.7 6.1 0.00 0.57 0.37 87 1006.2
20260506161908 46 22 1.7 4.3 0.00 0.57 0.37 88 1006.2
20260506160907 48 27 1.7 6.1 0.00 0.57 0.37 90 1005.8
20260506155907 46 7 1.7 7.0 0.00 0.57 0.37 91 1006.1
20260506154907 46 10 1.7 4.3 0.00 0.57 0.37 91 1006.1
20260506153907 46 359 1.7 4.3 0.00 0.57 0.37 92 1006.4
20260506152907 45 357 2.6 6.1 0.00 0.57 0.37 93 1006.5
20260506151907 45 9 2.6 6.1 0.00 0.57 0.37 93 1006.4
20260506150907 45 358 2.6 6.1 0.00 0.57 0.37 95 1006.5
20260506145908 44 358 2.6 5.2 0.00 0.57 0.37 95 1006.6
20260506144907 44 6 2.6 5.2 0.00 0.57 0.37 96 1006.2
20260506143907 44 9 1.7 5.2 0.00 0.57 0.37 96 1006.4
20260506142907 44 350 1.7 5.2 0.00 0.57 0.37 97 1006.5
20260506141907 44 8 1.7 5.2 0.00 0.57 0.37 97 1006.2
20260506140907 44 353 1.7 4.3 0.01 0.57 0.37 98 1006.4
20260506135907 45 343 0.9 3.5 0.01 0.57 0.37 99 1006.0
20260506134909 44 11 1.7 6.1 0.02 0.57 0.37 99 1006.2
20260506133907 44 1 1.7 5.2 0.03 0.57 0.37 99 1006.0
20260506132907 43 15 1.7 4.3 0.03 0.57 0.37 99 1005.9
20260506131907 43 12 1.7 5.2 0.04 0.57 0.36 99 1006.0
20260506130909 43 356 1.7 4.3 0.04 0.57 0.36 99 1006.0
20260506125908 43 19 0.9 4.3 0.04 0.56 0.36 99 1005.7
20260506124908 43 3 1.7 4.3 0.04 0.56 0.35 99 1005.9
20260506123908 43 19 0.9 4.3 0.04 0.55 0.34 99 1006.1
20260506122907 42 11 1.7 3.5 0.03 0.54 0.34 99 1006.0
20260506121908 42 2 1.7 4.3 0.02 0.54 0.33 99 1006.0
20260506120908 42 11 1.7 6.1 0.02 0.53 0.32 99 1006.0
20260506115908 42 9 1.7 4.3 0.02 0.52 0.31 99 1006.0
20260506114908 42 15 1.7 3.5 0.02 0.52 0.31 99 1006.1
20260506113910 42 12 1.7 4.3 0.02 0.51 0.30 99 1005.8
20260506112908 42 8 1.7 5.2 0.02 0.51 0.30 99 1006.2